Вернуться в каталог

HAIYANG 4A

АктивенНаукаSSO
NORAD 61936·PAYLOAD·🇨🇳 China

Запущен Nov 13, 2024 с Taiyuan Satellite Launch Center

Loading…

Ближайшие Пролёты (ближайшие 24 часа)

TLE

СвежийSource: Space-Track

Эпоха: Sep 14, 2026, 15:18 UTC

1 61936U 24208A   26257.63762341  .00000310  00000-0  55646-4 0  9999
2 61936  98.0072 264.1831 0000925 110.5377 249.5930 14.73287290 98617

Отслеживайте HAIYANG 4A в реальном времени с AllMySat

Download on the App Store